When you browse on this site, cookies collect data to enhance your experience and personalize the content and advertising you see.
Visit our Privacy Policy to learn more. By continuing to use the site, you agree to this use of cookies and data.
  • En Estados Unidos
  • Lista de países
  • Para 7 días
  • Temperatura del agua
  • Mapa Satelital
  • El tiempo en el mapa
  • Informadores
  • user-avatar
    Iniciar sesión

    Tiempo cada hora Luanda

    Hoy, 17 Diciembre, Lunes

    Tiempo Temperatura Precipitaciones Viento Presión Humedad
    00:00 +25°C° 0 mm 2 mps 755 mmHg 87%
    01:00 +25°C° 0 mm 2 mps 755 mmHg 88%
    02:00 +25°C° 0 mm 1 mps 755 mmHg 89%
    03:00 +25°C° 0 mm 1 mps 755 mmHg 90%
    04:00 +25°C° 0 mm 1 mps 755 mmHg 91%
    05:00 +25°C° 0 mm 1 mps 755 mmHg 89%
    06:00 +26°C° 0 mm 1 mps 756 mmHg 87%
    07:00 +26°C° 0 mm 1 mps 756 mmHg 85%
    08:00 +27°C° 0 mm 1 mps 756 mmHg 81%
    09:00 +28°C° 0 mm 1 mps 756 mmHg 77%
    10:00 +28°C° 0 mm 1 mps 756 mmHg 73%
    11:00 +30°C° 0 mm 1 mps 755 mmHg 67%
    12:00 +31°C° 0 mm 1 mps 755 mmHg 61%
    13:00 +33°C° 0 mm 1 mps 754 mmHg 55%
    14:00 +34°C° 0 mm 2 mps 754 mmHg 55%
    15:00 +34°C° 0 mm 2 mps 753 mmHg 55%
    16:00 +34°C° 0 mm 3 mps 752 mmHg 55%
    17:00 +31°C° 0 mm 3 mps 753 mmHg 61%
    18:00 +30°C° 0 mm 3 mps 753 mmHg 68%
    19:00 +28°C° 0 mm 2 mps 753 mmHg 74%
    20:00 +28°C° 0 mm 2 mps 754 mmHg 76%
    21:00 +27°C° 0 mm 2 mps 754 mmHg 78%
    22:00 +27°C° 0 mm 2 mps 755 mmHg 80%
    23:00 +27°C° 0 mm 2 mps 754 mmHg 81%

    Mañana, 18 Diciembre, Martes

    Tiempo Temperatura Precipitaciones Viento Presión Humedad
    00:00 +27°C° 0 mm 2 mps 754 mmHg 81%
    01:00 +27°C° 0 mm 2 mps 754 mmHg 82%
    02:00 +26°C° 0 mm 1 mps 754 mmHg 83%
    03:00 +26°C° 0 mm 1 mps 754 mmHg 84%
    04:00 +26°C° 0 mm 1 mps 754 mmHg 85%
    05:00 +26°C° 0 mm 1 mps 755 mmHg 83%
    06:00 +27°C° 0 mm 1 mps 755 mmHg 81%
    07:00 +27°C° 0 mm 1 mps 756 mmHg 80%
    08:00 +29°C° 0 mm 1 mps 756 mmHg 72%
    09:00 +31°C° 0 mm 1 mps 756 mmHg 65%
    10:00 +32°C° 0 mm 1 mps 756 mmHg 58%
    11:00 +34°C° 0 mm 2 mps 755 mmHg 56%
    12:00 +34°C° 0 mm 3 mps 755 mmHg 54%
    13:00 +35°C° 0 mm 3 mps 754 mmHg 52%
    14:00 +34°C° 0 mm 4 mps 754 mmHg 55%
    15:00 +33°C° 0 mm 4 mps 753 mmHg 58%
    16:00 +32°C° 0 mm 5 mps 753 mmHg 62%
    17:00 +30°C° 0 mm 4 mps 753 mmHg 67%
    18:00 +29°C° 0 mm 4 mps 754 mmHg 72%
    19:00 +28°C° 0 mm 4 mps 754 mmHg 77%
    20:00 +27°C° 0 mm 3 mps 755 mmHg 79%
    21:00 +27°C° 0 mm 3 mps 755 mmHg 80%
    22:00 +27°C° 0 mm 3 mps 756 mmHg 82%
    23:00 +27°C° 0 mm 3 mps 756 mmHg 83%

    Pasado mañana, 19 Diciembre, Miércoles

    Tiempo Temperatura Precipitaciones Viento Presión Humedad
    00:00 +27°C° 0 mm 3 mps 755 mmHg 84%
    01:00 +26°C° 0 mm 3 mps 755 mmHg 85%
    02:00 +26°C° 0 mm 3 mps 755 mmHg 86%
    03:00 +26°C° 0 mm 3 mps 754 mmHg 87%
    04:00 +26°C° 0 mm 2 mps 754 mmHg 89%
    05:00 +26°C° 0 mm 2 mps 754 mmHg 87%
    06:00 +26°C° 0 mm 2 mps 755 mmHg 85%
    07:00 +27°C° 0 mm 1 mps 755 mmHg 83%
    08:00 +28°C° 0 mm 2 mps 756 mmHg 78%
    09:00 +29°C° 0 mm 2 mps 756 mmHg 72%
    10:00 +30°C° 0 mm 2 mps 756 mmHg 67%
    11:00 +31°C° 0 mm 2 mps 756 mmHg 65%
    12:00 +31°C° 0 mm 3 mps 755 mmHg 62%
    13:00 +33°C° 0 mm 3 mps 754 mmHg 60%
    14:00 +33°C° 0 mm 4 mps 754 mmHg 59%
    15:00 +33°C° 0 mm 4 mps 753 mmHg 59%
    16:00 +33°C° 0 mm 5 mps 752 mmHg 59%
    17:00 +30°C° 0 mm 4 mps 753 mmHg 65%
    18:00 +29°C° 0 mm 4 mps 753 mmHg 71%
    19:00 +27°C° 0 mm 4 mps 754 mmHg 78%
    20:00 +27°C° 0 mm 3 mps 754 mmHg 80%
    21:00 +27°C° 0 mm 2 mps 755 mmHg 82%
    22:00 +26°C° 0 mm 2 mps 755 mmHg 84%
    23:00 +26°C° 0 mm 2 mps 755 mmHg 85%

    20 Diciembre, Jueves

    Tiempo Temperatura Precipitaciones Viento Presión Humedad
    00:00 +26°C° 0 mm 2 mps 755 mmHg 86%
    01:00 +26°C° 0 mm 2 mps 754 mmHg 87%
    02:00 +25°C° 0 mm 2 mps 754 mmHg 88%
    03:00 +25°C° 0 mm 2 mps 754 mmHg 89%
    04:00 +25°C° 0 mm 1 mps 754 mmHg 90%
    05:00 +25°C° 0 mm 1 mps 754 mmHg 88%
    06:00 +26°C° 0 mm 1 mps 755 mmHg 86%
    07:00 +26°C° 0 mm 1 mps 755 mmHg 84%
    08:00 +28°C° 0 mm 1 mps 755 mmHg 75%
    09:00 +30°C° 0 mm 1 mps 756 mmHg 67%
    10:00 +30°C° 0 mm 0 mps 756 mmHg 58%
    11:00 +32°C° 0 mm 1 mps 755 mmHg 55%
    12:00 +34°C° 0 mm 2 mps 754 mmHg 52%
    13:00 +34°C° 0 mm 3 mps 754 mmHg 49%
    14:00 +34°C° 0 mm 3 mps 753 mmHg 53%
    15:00 +33°C° 0 mm 4 mps 753 mmHg 57%
    16:00 +32°C° 0 mm 4 mps 752 mmHg 60%
    17:00 +30°C° 0 mm 4 mps 753 mmHg 65%
    18:00 +29°C° 0 mm 3 mps 753 mmHg 70%
    19:00 +27°C° 0 mm 3 mps 754 mmHg 75%
    20:00 +27°C° 0 mm 3 mps 755 mmHg 78%
    21:00 +27°C° 0 mm 2 mps 755 mmHg 80%
    22:00 +26°C° 0 mm 2 mps 756 mmHg 82%
    23:00 +26°C° 0 mm 2 mps 755 mmHg 84%

    21 Diciembre, Viernes

    Tiempo Temperatura Precipitaciones Viento Presión Humedad
    00:00 +26°C° 0 mm 2 mps 755 mmHg 85%
    01:00 +26°C° 0 mm 2 mps 754 mmHg 87%
    02:00 +25°C° 0 mm 2 mps 754 mmHg 88%
    03:00 +25°C° 0 mm 3 mps 754 mmHg 89%
    04:00 +25°C° 0 mm 3 mps 754 mmHg 90%
    05:00 +25°C° 0 mm 3 mps 755 mmHg 88%
    06:00 +26°C° 0 mm 3 mps 755 mmHg 86%
    07:00 +26°C° 0 mm 3 mps 756 mmHg 83%
    08:00 +27°C° 0.1 mm 3 mps 756 mmHg 76%
    09:00 +29°C° 0.1 mm 3 mps 756 mmHg 68%
    10:00 +30°C° 0.1 mm 2 mps 756 mmHg 61%
    11:00 +31°C° 0 mm 3 mps 755 mmHg 56%
    12:00 +34°C° 0 mm 3 mps 754 mmHg 51%
    13:00 +35°C° 0 mm 3 mps 753 mmHg 46%
    14:00 +34°C° 0 mm 4 mps 753 mmHg 50%
    15:00 +33°C° 0 mm 4 mps 752 mmHg 54%
    16:00 +32°C° 0 mm 5 mps 752 mmHg 59%
    17:00 +30°C° 0 mm 4 mps 752 mmHg 64%
    18:00 +29°C° 0 mm 4 mps 752 mmHg 70%
    19:00 +27°C° 0 mm 4 mps 753 mmHg 75%
    20:00 +27°C° 0 mm 3 mps 753 mmHg 78%
    21:00 +26°C° 0 mm 3 mps 754 mmHg 80%
    22:00 +26°C° 0 mm 3 mps 754 mmHg 82%
    23:00 +26°C° 0 mm 3 mps 754 mmHg 83%

    22 Diciembre, Sábado

    Tiempo Temperatura Precipitaciones Viento Presión Humedad
    00:00 +25°C° 0 mm 2 mps 754 mmHg 85%
    01:00 +25°C° 0 mm 2 mps 753 mmHg 86%
    02:00 +25°C° 0 mm 2 mps 753 mmHg 86%
    03:00 +25°C° 0 mm 2 mps 753 mmHg 85%
    04:00 +25°C° 0 mm 2 mps 753 mmHg 85%
    05:00 +25°C° 0 mm 2 mps 754 mmHg 84%
    06:00 +25°C° 0 mm 2 mps 754 mmHg 83%
    07:00 +26°C° 0 mm 2 mps 754 mmHg 82%
    08:00 +27°C° 0 mm 1 mps 755 mmHg 75%
    09:00 +29°C° 0 mm 1 mps 755 mmHg 67%
    10:00 +31°C° 0 mm 1 mps 755 mmHg 59%
    11:00 +32°C° 0 mm 2 mps 754 mmHg 55%
    12:00 +34°C° 0 mm 3 mps 753 mmHg 51%
    13:00 +35°C° 0 mm 3 mps 753 mmHg 46%
    14:00 +34°C° 0 mm 4 mps 752 mmHg 49%
    15:00 +33°C° 0 mm 4 mps 752 mmHg 52%
    16:00 +32°C° 0 mm 4 mps 751 mmHg 55%
    17:00 +30°C° 0 mm 4 mps 752 mmHg 61%
    18:00 +28°C° 0 mm 4 mps 752 mmHg 67%
    19:00 +27°C° 0 mm 3 mps 752 mmHg 73%
    20:00 +26°C° 0 mm 3 mps 753 mmHg 75%
    21:00 +26°C° 0 mm 3 mps 753 mmHg 77%
    22:00 +26°C° 0 mm 3 mps 754 mmHg 79%
    23:00 +26°C° 0 mm 2 mps 753 mmHg 80%
    Mostrar más